Simultaneous Nadir Overpasses (SNOs) Predictions

Prediction of SNOs between AQUA and GOES-15 Satellite Orbit:

Table of predicted SNOs for the next 14.0 days since TLE Epoch: 6/23/2017
Index Date Time (AQUA) AQUA Lat,Lon GOES-15 Lat,Lon Distance(km) Time Diff (sec)
1 06/25/2017 10:19:32 -0.99,-131.18 -0.07,-135.43 484.10 80
2 06/25/2017 22:40:57 -0.08,-136.38 0.08,-135.47 102.29 80
3 06/27/2017 22:28:44 0.53,-133.41 0.08,-135.48 235.07 80
4 06/28/2017 10:49:59 0.54,-138.57 -0.10,-135.44 355.35 80
5 06/30/2017 10:37:46 -0.07,-135.61 -0.10,-135.45 18.27 80
6 07/02/2017 10:25:33 -0.69,-132.64 -0.10,-135.45 318.42 80
7 07/02/2017 22:46:57 -0.38,-137.84 0.12,-135.48 268.61 80
8 07/04/2017 22:34:45 0.25,-134.88 0.12,-135.47 67.41 80
9 07/06/2017 22:22:32 0.88,-131.92 0.12,-135.46 402.85 80
10 07/07/2017 10:43:46 0.21,-137.08 -0.14,-135.42 187.82 80




NCC Satellite Simultaneous Nadir Overpasses (SNOs) Prediction Service
